Lid_Strength_Index
23 22 22 21 21 20 22 23 23 21 24 19 20 23 19 20 17 17 17 15 15 15 18 18 18 18 18 18 16 15 15 15 15 14 13 13 13 13 12 13 13 12 12 12
24 21 21 22 20 20 19 20 22 20 19 15 14 15 19 19 21 19 18 14 15 15 17 18 18 19 18 18 17 16 16 16 15 15 14 13 13 13 13 13 13 12 13 12
25 23 23 23 21 20 21 22 20 24 19 20 21 20 23 20 20 18 15 15 15 15 16 18 18 18 19 18 17 17 17 17 16 16 15 14 14 14 13 13 13 13 13 12
27 25 25 17 20 19 20 19 20 20 20 18 22 21 20 20 17 20 14 15 15 15 18 18 19 19 19 17 19 19 18 17 17 17 16 15 15 16 15 14 14 14 14 14
26 32 21 18 21 21 21 19 18 19 17 17 17 16 16 18 16 18 14 14 17 22 23 20 22 21 20 19 18 17 17 17 17 17 17 17 16 16 15 15 15 15 15 15
32 29 27 17 20 19 19 21 18 18 17 18 16 20 19 20 16 17 18 23 22 22 26 23 22 22 20 20 19 18 18 17 17 17 17 17 17 17 16 16 16 15 15 14
33 29 24 18 18 18 22 18 18 17 17 17 17 17 20 19 12 20 21 22 24 25 23 22 23 21 20 20 19 18 17 17 17 16 17 17 17 17 17 17 17 17 17 16
30 32 26 18 17 19 16 17 16 17 17 16 16 16 17 15 14 16 20 22 22 22 21 22 23 19 20 19 20 19 17 17 17 17 16 16 17 17 17 17 17 18 18 18
22 22 17 16 16 15 16 16 16 16 15 15 15 15 15 15 13 16 17 17 19 18 17 19 19 16 17 20 19 19 18 19 18 17 17 17 17 18 18 18 18 19 19 19
20 16 17 17 16 15 16 16 16 15 15 16 15 15 15 15 14 15 15 16 17 18 18 18 19 18 19 19 19 22 21 20 19 18 18 18 17 18 19 20 20 20 20 20
20 17 15 15 16 15 15 15 16 16 15 15 15 15 14 14 15 15 15 16 17 17 17 18 19 20 22 20 21 21 22 21 20 20 19 18 18 19 18 19 20 22 25 23
17 15 15 14 15 15 16 16 16 16 17 16 15 15 15 15 14 15 16 17 17 18 18 18 21 21 22 24 23 23 22 22 22 22 22 21 20 18 12 13 13 14 14 17
12 14 15 13 16 16 17 17 17 17 17 16 16 15 16 16 16 16 17 17 17 17 18 20 21 22 22 25 26 24 23 23 23 22 23 23 23 22 18 15 13 13 13 14
14 16 15 13 14 16 17 17 20 21 20 18 17 19 18 17 20 17 17 17 17 19 20 21 23 22 23 25 26 26 26 23 23 24 24 25 25 25 24 23 23 25 18 15
12 15 12 12 18 17 21 22 21 19 19 20 21 19 19 19 17 17 17 19 20 20 21 23 24 22 26 27 26 27 25 24 25 25 26 24 25 25 26 26 27 28 22 20
20 19 17 17 15 16 21 22 20 17 20 18 20 20 18 17 18 18 19 21 21 20 20 22 22 20 24 25 25 26 25 24 25 26 27 27 26 26 27 27 28 28 24 24
16 13 15 20 18 16 18 16 17 17 18 18 17 18 22 21 24 23 21 21 19 20 20 21 20 23 24 24 23 22 22 24 24 27 26 25 26 24 25 28 28 29 27 26
12 11 10 11 12 13 17 17 17 18 19 17 18 21 21 22 18 17 19 22 26 26 25 21 22 23 24 24 23 23 23 23 25 23 24 27 26 28 28 23 20 20 19 19
15 14 14 15 14 15 15 15 18 19 20 21 21 20 19 18 18 20 21 21 21 21 17 20 20 23 24 24 24 26 24 25 27 28 27 27 28 27 24 19 18 18 17 18
22 25 24 23 21 19 16 18 20 22 22 23 22 21 20 19 20 19 15 16 15 17 21 19 20 21 23 24 20 24 24 24 24 26 28 27 26 21 18 17 17 17 17 17
24 25 26 26 25 24 21 20 23 22 22 23 21 19 18 20 20 18 16 16 16 16 21 21 19 18 20 21 21 22 22 23 23 23 23 22 19 17 16 16 16 16 16 17
29 28 27 28 28 28 26 25 25 24 23 22 22 21 20 21 22 21 18 17 23 19 19 20 19 19 20 20 20 20 20 20 20 20 19 18 16 16 16 16 16 16 17 18
28 31 29 29 29 28 28 28 28 27 24 23 22 21 20 22 21 20 20 20 24 21 19 20 21 21 21 20 18 18 19 19 19 19 18 16 15 15 16 17 18 19 21 23
31 30 30 29 31 31 28 28 30 29 27 24 22 22 22 23 24 25 23 22 22 19 22 25 21 18 21 21 19 18 18 18 18 18 17 18 19 20 21 22 22 23 24 27
31 31 32 29 30 28 30 30 30 28 26 25 25 25 25 25 21 21 20 22 20 21 21 20 18 19 18 17 17 18 19 20 21 21 21 22 23 23 24 24 25 26 26 26
30 30 30 30 30 30 30 28 27 27 27 26 26 25 24 22 21 21 21 21 21 22 22 22 22 22 23 23 23 23 23 23 24 24 24 24 25 25 25 25 26 26 26 26
27 25 27 26 25 25 26 26 26 27 26 26 26 24 23 23 23 24 24 24 25 25 25 25 25 25 25 25 26 26 26 26 25 25 25 25 25 25 26 25 26 25 25 25